Location: Peterborough
(44.3091°N, 78.3197°W)
Time: 17:05:45
(UTC-04:00)

Explorer 7 - Pass Details

Date: 24 March 2023
Orbit: 477 x 653 km, 50.3° (Epoch: 04 June)

Event Time Altitude Azimuth Distance (km) Brightness Sun altitude
Rises 18:04:47 0° 227° (SW) 2,904 11.6 14.4°
Reaches altitude 10° 18:07:11 10° 223° (SW) 1,975 10.7 14.0°
Maximum altitude 18:11:37 55° 146° (SE) 713 7.4 13.2°
Drops below altitude 10° 18:15:49 10° 68° (ENE) 1,873 9.0 12.5°
Sets 18:18:02 0° 64° (ENE) 2,739 9.8 12.1°
